Change the Weather History Date:

Sunday, December 9, 2012

  Actual Average Record
Temperature  
Mean Temperature 26 °F 21 °F  
Max Temperature 33 °F 30 °F 63 °F (1939)
Min Temperature 19 °F 13 °F -19 °F (1958)
Degree Days  
Heating Degree Days 39 44  
Month to date heating degree days 267 379  
Since 1 July heating degree days 1869 2059  
Cooling Degree Days 0 0  
Month to date cooling degree days 0 0  
Year to date cooling degree days 899 616  
Moisture  
Dew Point 27 °F    
Average Humidity 87    
Maximum Humidity 92    
Minimum Humidity 81    
Precipitation  
Precipitation 0.14 in 0.05 in 0.64 in (1918)
Month to date precipitation 0.22 0.42  
Year to date precipitation 19.15 34.38  
Snow  
Snow 1.40 in 0.30 in 10.00 in (1924)
Month to date snowfall 1.4 2.6  
Since 1 July snowfall 1.4 7.3  
Snow Depth 0.00 in    
Sea Level Pressure  
Sea Level Pressure 29.86 in    
Wind  
Wind Speed 14 mph (South)    
Max Wind Speed 29 mph    
Max Gust Speed 36 mph    
Visibility 4 miles    
Events Fog , Rain , Snow    
T = Trace of Precipitation, MM = Missing Value Source: NWS Daily Summary

Daily Weather History Graph

Daily Weather History Graph

Search for Another Location

Airport or City:

Trip Planner

Search our weather history database for the weather conditions in past years. The results will help you decide how hot, cold, wet, or windy it might be!

Date:

Astronomy

Dec. 09, 2012 Rise Set
Actual Time 7:33 AM CST 4:38 PM CST
Civil Twilight 7:01 AM CST 5:10 PM CST
Nautical Twilight 6:25 AM CST 5:46 PM CST
Astronomical Twilight 5:51 AM CST 6:20 PM CST
Moon 3:02 AM CST (12/9) 1:49 PM CST (12/9)
Length of Visible Light 10h 08m
Length of Day
9h 04m
Waning Crescent, 18% of the Moon is Illuminated
Dec 9
Waning Crescent
Dec 13
New
Dec 19
First Quarter
Dec 28
Full
Jan 4
Last Quarter

Hourly Weather History & Observations

Time (CST) Temp. Windchill Dew Point Humidity Pressure Visibility Wind Dir Wind Speed Gust Speed Precip Events Conditions
12:02 AM 32.0 °F 20.8 °F 28.4 °F 87% 29.96 in 4.0 mi SE 17.3 mph 23.0 mph 0.00 in   Overcast
12:18 AM 32.0 °F 21.2 °F 28.4 °F 87% 29.97 in 5.0 mi SSE 16.1 mph - 0.00 in   Overcast
12:53 AM 32.0 °F 22.5 °F 28.9 °F 88% 29.97 in 5.0 mi SE 12.7 mph - 0.00 in   Overcast
1:53 AM 32.0 °F 23.0 °F 28.9 °F 88% 29.97 in 6.0 mi SE 11.5 mph - N/A   Overcast
2:53 AM 32.0 °F 23.6 °F 28.9 °F 88% 29.95 in 5.0 mi SE 10.4 mph - N/A   Overcast
3:53 AM 32.0 °F 23.0 °F 28.9 °F 88% 29.96 in 5.0 mi SE 11.5 mph - N/A   Overcast
4:26 AM 32.0 °F 22.5 °F 30.2 °F 93% 29.92 in 4.0 mi SE 12.7 mph - N/A   Overcast
4:53 AM 32.0 °F 23.6 °F 30.0 °F 92% 29.94 in 4.0 mi SE 10.4 mph - N/A   Overcast
5:53 AM 33.8 °F 23.5 °F 30.2 °F 87% 29.88 in 3.0 mi ESE 16.1 mph 23.0 mph N/A   Overcast
6:20 AM 33.8 °F 23.9 °F 30.2 °F 87% 29.88 in 2.5 mi ESE 15.0 mph - 0.00 in Snow Light Snow
6:53 AM 33.1 °F 23.4 °F 30.0 °F 89% 29.90 in 3.0 mi ESE 13.8 mph 23.0 mph 0.00 in   Overcast
7:20 AM 33.8 °F 24.8 °F 30.2 °F 87% 29.87 in 2.5 mi SE 12.7 mph 23.0 mph N/A Snow Light Snow
7:53 AM 33.1 °F 22.6 °F 30.0 °F 89% 29.90 in 1.5 mi SE 16.1 mph - 0.00 in Snow Light Snow
8:22 AM 32.0 °F 22.5 °F 30.2 °F 93% 29.88 in 0.5 mi SE 12.7 mph - 0.00 in Fog , Snow Snow
8:53 AM 32.0 °F 23.0 °F 30.9 °F 96% 29.89 in 0.5 mi SE 11.5 mph - 0.02 in Fog , Snow Light Snow
9:36 AM 32.0 °F 24.2 °F 30.2 °F 93% 29.87 in 1.0 mi SE 9.2 mph - 0.01 in Snow Light Snow
9:53 AM 33.1 °F 25.5 °F 30.9 °F 92% 29.89 in 1.2 mi SE 9.2 mph - 0.01 in Snow Light Snow
10:53 AM 33.1 °F 24.4 °F 30.9 °F 92% 29.87 in 1.2 mi SE 11.5 mph - 0.00 in Snow Light Snow
11:50 AM 32.0 °F 23.0 °F 30.2 °F 93% 29.81 in 0.8 mi SSE 11.5 mph - 0.00 in Snow Light Snow
11:53 AM 32.0 °F 23.6 °F 30.2 °F 93% 29.81 in 0.8 mi SSE 10.4 mph - N/A Snow Light Snow
12:20 PM 33.8 °F 27.0 °F 30.2 °F 87% 29.81 in 1.0 mi SSE 8.1 mph - 0.01 in Snow Light Snow
12:28 PM 33.8 °F 27.0 °F 30.2 °F 87% 29.81 in 0.8 mi SSE 8.1 mph - 0.01 in Snow Light Snow
12:40 PM 33.8 °F 26.4 °F 30.2 °F 87% 29.80 in 1.2 mi SSE 9.2 mph - 0.01 in   Overcast
12:53 PM 33.1 °F 26.1 °F 30.9 °F 92% 29.82 in 1.2 mi SSE 8.1 mph - 0.02 in   Overcast
1:53 PM 33.1 °F 26.1 °F 30.9 °F 92% 29.80 in 2.5 mi South 8.1 mph - 0.01 in Snow Light Snow
2:07 PM 33.8 °F 27.7 °F 30.2 °F 87% 29.78 in 4.0 mi South 6.9 mph - 0.00 in   Overcast
2:29 PM 33.8 °F 22.8 °F 30.2 °F 87% 29.77 in 2.0 mi WSW 18.4 mph 21.9 mph 0.00 in   Overcast
2:38 PM 32.0 °F 21.6 °F 28.4 °F 87% 29.78 in 1.2 mi West 15.0 mph - 0.00 in   Overcast
2:53 PM 30.9 °F 19.1 °F 28.9 °F 92% 29.81 in 1.2 mi WSW 18.4 mph 23.0 mph 0.00 in   Overcast
3:03 PM 30.2 °F 19.8 °F 28.4 °F 93% 29.79 in 1.8 mi West 13.8 mph - N/A   Overcast
3:20 PM 30.2 °F 16.8 °F 26.6 °F 86% 29.79 in 2.0 mi West 23.0 mph - 0.00 in Rain Light Freezing Rain
3:36 PM 28.4 °F 17.0 °F 24.8 °F 86% 29.79 in 3.0 mi West 15.0 mph - 0.00 in Rain Light Freezing Rain
3:53 PM 28.0 °F 16.1 °F 24.1 °F 85% 29.83 in 10.0 mi West 16.1 mph 23.0 mph 0.00 in Rain Light Freezing Rain
4:02 PM 26.6 °F 15.7 °F 23.0 °F 86% 29.79 in 10.0 mi West 12.7 mph - 0.00 in   Overcast
4:53 PM 25.0 °F 12.6 °F 21.9 °F 88% 29.83 in 10.0 mi SW 15.0 mph - 0.00 in   Overcast
5:23 PM 24.8 °F 14.0 °F 21.2 °F 86% 29.80 in 10.0 mi WSW 11.5 mph - N/A   Overcast
5:53 PM 24.1 °F 13.1 °F 21.0 °F 88% 29.83 in 9.0 mi West 11.5 mph - N/A   Overcast
6:53 PM 25.0 °F 13.6 °F 21.0 °F 85% 29.83 in 10.0 mi West 12.7 mph - N/A   Overcast
7:53 PM 26.1 °F 16.2 °F 21.9 °F 84% 29.83 in 9.0 mi West 10.4 mph - N/A   Overcast
8:53 PM 27.0 °F 15.2 °F 24.1 °F 89% 29.83 in 10.0 mi WNW 15.0 mph - N/A   Overcast
9:53 PM 25.0 °F 9.5 °F 21.9 °F 88% 29.85 in 10.0 mi WNW 24.2 mph 28.8 mph N/A   Overcast
10:19 PM 24.8 °F 10.0 °F 21.2 °F 86% 29.82 in 10.0 mi NW 21.9 mph 29.9 mph N/A   Overcast
10:42 PM 24.8 °F 10.3 °F 21.2 °F 86% 29.84 in 7.0 mi NW 20.7 mph - N/A   Overcast
10:53 PM 24.1 °F 9.0 °F 21.0 °F 88% 29.88 in 8.0 mi NW 21.9 mph 28.8 mph N/A   Overcast
11:53 PM 19.9 °F 1.5 °F 16.0 °F 85% 29.91 in 10.0 mi NW 28.8 mph 35.7 mph N/A   Overcast